Flag for Canada Weather past 2 weeks in Edmundston, New Brunswick, Canada

Now
40 °F

Chilly.


Feels Like: 35 °F
Forecast: 37 / 44 °F
Wind: 7 mph from East

Location: St Leonard


UV Index: 0 (Low)

Visibility: N/A


Pressure: 29.47 "Hg

Humidity: 97%

Dew point: 39 °F

Location of EdmundstonLocation

Historic Weather in Edmundston

°F

Edmundston temperature yesterday

Maximum temperature yesterday: 48 °F (at 12:00 PM)
Minimum temperature yesterday: 30 °F (at 4:00 AM)
Average temperature yesterday: 40 °F

Past Weeks' High & Low Weather Summary

 TemperatureHumidityPressure
High56 °F (Apr 21, 7:00 PM)100% (Apr 9, 7:00 AM)30.84 "Hg (Apr 9, 7:00 AM)
Low8 °F (Apr 17, 7:00 AM)23% (Apr 20, 6:00 PM)29.18 "Hg (Apr 9, 1:00 AM)
Average36 °F71%30.00 "Hg
* Reported Apr 8 3:00 AM — Apr 23 3:00 AM, Edmundston, Weather by CustomWeather, © 2014

Note: Actual official high and low records may vary slightly from our data, if they occured in-between our weather recording intervals... More about our weather records

Advertising

Historic Weather Conditions — Data for Previous 24 hours

 ConditionsComfort  
Time TempWeatherWind HumidityBarometerVisibility
3:00 AM
Apr 23
40 °FChilly.10 mph97%29.49 "HgN/A
2:00 AM39 °FChilly.12 mph97%29.51 "HgN/A
1:00 AM39 °FChilly.12 mph96%29.53 "HgN/A
12:00 AM40 °FChilly.10 mph96%29.56 "HgN/A
11:00 PM
Apr 22
40 °FQuite cool.8 mph94%29.58 "HgN/A
10:00 PM41 °FQuite cool.6 mph96%29.59 "HgN/A
9:00 PM42 °FQuite cool.2 mph96%29.59 "HgN/A
8:00 PM43 °FQuite cool.5 mph94%29.58 "HgN/A
7:00 PM43 °FQuite cool.12 mph94%29.58 "HgN/A
6:00 PM44 °FQuite cool.5 mph93%29.62 "HgN/A
5:00 PM45 °FCool.6 mph89%29.62 "HgN/A
4:00 PM46 °FCool.7 mph82%29.65 "HgN/A
3:00 PM47 °FCool.8 mph73%29.66 "HgN/A
2:00 PM45 °FCool.8 mph78%29.68 "HgN/A
1:00 PM46 °FCool.8 mph67%29.70 "HgN/A
12:00 PM48 °FCool.9 mph53%29.71 "HgN/A
11:00 AM47 °FCool.7 mph53%29.72 "HgN/A
10:00 AM47 °FCool.5 mph54%29.73 "HgN/A
9:00 AM40 °FQuite cool.No wind71%29.75 "HgN/A
8:00 AM34 °FChilly.No wind87%29.75 "HgN/A
7:00 AM32 °FChilly.1 mph92%29.75 "HgN/A
6:00 AM35 °FChilly.5 mph83%29.75 "HgN/A
5:00 AM33 °FChilly.5 mph88%29.76 "HgN/A
4:00 AM30 °FChilly.2 mph93%29.78 "HgN/A
Weather by CustomWeather, © 2014

See weather overview